www.pogodaiklimat.ru

Погода и климат >> Архив погоды >> КНДР >> Канге


ПОГОДА в Канге

  • Прогноз погоды в Канге
  • Монитор погоды в Канге

АРХИВ ПОГОДЫ в Канге

Время (UTC), дата Ветер
(напр.,м/с)
 
Видим.   Явления Облачность Т
(С)
Тd
(С)
f
(%)
Тe
(С)
Тes
(С)
Комфортность P
(гПа)
Po
(гПа)
Тmin
(С)
Tmax
(С)
R
(мм)
R24
(мм)
S
(см)
09 11.02 штиль 0 20 км ясно -6.4 -11.2 69 -7 -7 1027.8 991.2
12 11.02 штиль 0 20 км ясно -13.0 -15.7 80 -13 -13 1030.5 993.7 -3.5
15 11.02 штиль 0 20 км ясно -15.8 -18.7 78 -16 -16 1031.5 994.7
18 11.02 штиль 0 20 км ясно -17.1 -18.7 87 -17 -17 1033.6 996.7
21 11.02 штиль 0 15 км 8/0 1500 м
[Ac trans]
-16.8 -18.7 85 -17 -17 1033.8 996.9
00 12.02 штиль 0 20 км ясно -17.1 -18.7 87 -17 -15 1035.9 998.9 -20.0 700
03 12.02 штиль 0 20 км ясно -9.5 -13.2 74 -10 0 1034.7 997.8
06 12.02 штиль 0 20 км ясно -5.4 -12.2 59 -6 -0 1032.7 995.8
09 12.02 штиль 0 20 км ясно -6.6 -13.8 57 -7 -7 1031.5 994.6
12 12.02 штиль 0 20 км ясно -12.0 -15.7 74 -12 -12 1032.4 995.5 -3.5
15 12.02 штиль 0 20 км ясно -16.2 -18.7 81 -16 -16 1033.4 996.5
18 12.02 штиль 0 20 км ясно -18.7 -20.4 86 -19 -19 1033.9 997.1
21 12.02 штиль 0 20 км ясно -20.8 -22.5 86 -21 -21 1033.9 997.0
00 13.02 штиль 0 20 км ясно -21.0 -22.5 88 -21 -18 1035.5 998.6 -23.0 600
03 13.02 штиль 0 20 км ясно -12.0 -15.0 78 -12 -2 1034.9 998.0
06 13.02 штиль 0 20 км ясно -5.7 -11.7 63 -6 -0 1032.2 995.4
09 13.02 штиль 0 20 км ясно -7.1 -14.4 56 -7 -7 1032.2 995.4
12 13.02 штиль 0 20 км ясно -13.1 -16.4 76 -13 -13 1033.5 996.6 -4.2
15 13.02 штиль 0 20 км ясно -16.8 -19.5 80 -17 -17 1034.7 997.8
18 13.02 штиль 0 20 км ясно -19.2 -21.4 83 -19 -19 1036.0 999.1
21 13.02 штиль 0 20 км ясно -21.3 -23.7 81 -21 -21 1035.6 998.7
00 14.02 штиль 0 20 км ясно -21.6 -23.7 83 -22 -19 1036.3 999.3 -23.5 6
03 14.02 штиль 0 20 км ясно -12.6 -16.4 73 -13 -2 1034.1 997.3
06 14.02 штиль 0 20 км ясно -4.8 -10.3 65 -5 +1 1029.4 992.7
12 14.02 штиль 0 20 км ясно -9.3 -12.2 79 -10 -10 1026.8 990.1 -1.8
18 14.02 штиль 0 15 км 10/10 600 м
[Sc diur, vesp]
-9.2 -12.2 79 -10 -10 1024.5 988.0
00 15.02 штиль 0 15 км слаб. снег 10/0 600 м
[As op]
-8.4 -10.3 86 -9 -9 1020.8 984.4 -11.5 0.3 600
06 15.02 штиль 0 10 км слаб. снег 10/0 600 м
[As op]
-3.4 -5.7 84 -4 -3 1017.3 981.1 0.4
12 15.02 штиль 0 15 км 10/0 1500 м
[Ac trans]
-6.3 -8.6 84 -7 -7 1019.8 983.3 -1.2 0.2
18 15.02 штиль 0 15 км 6/6 600 м
[Sc diur, vesp]
-11.6 -13.2 88 -12 -12 1022.1 985.7
21 15.02 штиль 0 20 км ясно -14.8 -16.4 88 -15 -15 1023.4 986.8
00 16.02 штиль 0 20 км ясно -15.8 -17.8 85 -16 -13 1024.9 988.3 -17.4 700
03 16.02 штиль 0 20 км 10/0
[Ci sp]
-7.4 -10.3 80 -8 +1 1024.1 987.5
06 16.02 штиль 0 20 км ясно -3.0 -8.6 65 -4 +3 1021.9 985.5
09 16.02 штиль 0 20 км ясно -3.8 -9.4 65 -4 -4 1021.4 985.0
12 16.02 штиль 0 20 км ясно -9.4 -12.2 80 -10 -10 1023.1 986.5 -1.3
15 16.02 штиль 0 20 км ясно -13.3 -15.7 82 -13 -13 1024.2 987.7
18 16.02 штиль 0 20 км ясно -16.2 -17.8 87 -16 -16 1024.9 988.4
21 16.02 штиль 0 20 км ясно -17.4 -19.5 84 -17 -17 1025.8 989.3
00 17.02 штиль 0 20 км ясно -18.0 -19.5 88 -18 -15 1026.6 990.0 -20.6 700
03 17.02 штиль 0 20 км ясно -8.8 -12.2 76 -9 +2 1025.5 988.9
06 17.02 штиль 0 20 км ясно -0.6 -6.0 67 -1 +5 1022.7 986.2
09 17.02 штиль 0 20 км ясно -1.2 -7.4 63 -2 -2 1022.0 985.5
12 17.02 штиль 0 20 км ясно -7.6 -10.7 78 -8 -8 1023.4 986.9 +1.4
15 17.02 штиль 0 20 км ясно -10.8 -12.7 86 -11 -11 1025.2 988.7
18 17.02 штиль 0 20 км ясно -13.5 -15.7 83 -14 -14 1025.5 988.9
21 17.02 штиль 0 20 км ясно -14.9 -16.4 88 -15 -15 1026.6 990.0
00 18.02 штиль 0 20 км ясно -14.0 -15.7 87 -14 -11 1026.7 990.1 -17.4 600
03 18.02 штиль 0 20 км 3/0
[Ci sp]
-6.2 -10.3 73 -7 +4 1025.0 988.3
06 18.02 штиль 0 20 км 3/0
[Ci sp]
+2.2 -3.6 65 +2 +8 1021.8 985.3

 

Местоположение метеостанции Канге (КНДР): широта 40.97 долгота 126.60 высота над уровнем моря 306 м.

В архиве по умолчанию представлена погода в Канге за последнюю неделю. Архивные данные за месяц целиком и за предыдущие месяцы, начиная с января 2011 года, Вы можете получить, выбрав интересующий диапазон дат из раскрывающегося списка и нажав кнопку "Ввод!".


*Определитесь, кто Вы:
робот инопланетянин человек

Внимание! Время в таблицах - всемирное. Для получения местного времени необходимо прибавить поправку, которая равна 9 ч.

Смотрите также архив погоды в соседних городах и на ближайших метеорологических станциях:

Погода в Цзиане (Цзяньси, Китай) (40 км)
Погода в Джангджине (КНДР) (86 км)
Погода в Линьцзяне (Гирин, Китай) (87 км)
Погода в Чунгане (КНДР) (93 км)
Погода в Хыйчхоне (КНДР) (94 км)
Погода в Пунгсане (КНДР) (131 км)
Погода в Чанбае (Гирин, Китай) (137 км)
Погода в Хесене (КНДР) (139 км)
Погода в Хамхыне (КНДР) (141 км)
Погода на Плотине Сапунг (КНДР) (152 км)

Пояснения к столбцам:

Ветер - указаны скорость ветра в м/с - средняя за 10 мин, порывы в срок и между сроками (в фигурных скобках) и направление, откуда дует ветер: С - северный, СВ - северо-восточный, В - восточный, ЮВ - юго-восточный, Ю - южный, ЮЗ - юго-западный, З - западный, СЗ - северо-западный.
Видимость - горизонтальная дальность видимости в метрах или километрах. При видимости от 1 до 10 км при отсутствии осадков обычно наблюдается дымка, при ухудшении видимости до 1 км и менее - туман. В сухую погоду видимость может ухудшаться дымом, пылью или мглою.
Явления - указаны атмосферные явления, наблюдавшиеся в срок или в последний час перед сроком; фигурными скобками обозначены явления, наблюдавшиеся между сроками (за 1-3 часа до срока); квадратными скобками обозначены град или гололедные отложения с указанием их диаметра в мм.
Облачность - указаны через наклонную черту общая и нижняя облачность в баллах и высота нижней границы облаков в метрах; квадратными скобками обозначены формы облаков: Ci - перистые, Cs - перисто-слоистые, Cc - перисто-кучевые, Ac - высококучевые, As - высокослоистые, Sc - слоисто-кучевые, Ns - слоисто-дождевые, Cu - кучевые, Cb - кучево-дождевые. Подробнее классификацию облаков см. в Атласе облаков (PDF).
T - Температура воздуха - температура, измеренная на высоте 2 м над землей.
Td - Температура точки росы - температура, при понижении до которой содержащийся в воздухе водяной пар достигнет насыщения.
f - Относительная влажность воздуха - влажноcть воздуха, измеренная на высоте 2 м над землей.
Te - Эффективная температура - температура, которую ощущает одетый по сезону человек в тени. Характеристика душности погоды. При расчете учитывается влияние влажности воздуха и скорости ветра на теплоощущения человека.
Tes - Эффективная температура на солнце - температура, которую ощущает человек, с поправкой на солнечный нагрев. Характеристика знойности погоды. Зависит от высоты солнца над горизонтом, облачности и скорости ветра. Ночью, в пасмурную погоду, а также при ветре 12 м/с и более поправка равна нулю.
P - Атмосферное давление - приведенное к уровню моря атмосферное давление.
Po - Атмосферное давление - измеренное на уровне метеостанции атмосферное давление.
Tmin - Минимальная температура - минимум температуры воздуха на высоте 2 м над землей.
Tmax - Максимальная температура - максимум температуры воздуха на высоте 2 м над землей.
R - Количество осадков - Количество выпавших осадков за период времени, мм. При наведении курсора мыши на число - период времени, за который выпало указанное количество осадков.
R24 - Количество осадков - Количество выпавших осадков за 24 часа, мм.
S - Снежный покров - Высота снежного покрова, см. При наведении курсора мыши на число - состояние снежного покрова и степень покрытия местности в баллах.